Ely, MN

1:48 AM CDT on April 25, 2017 (GMT -0500)
Ely Municipal

Weather History for KELO - November, 2013

Change the Weather History Date:

Saturday, November 2, 2013

  Actual Average Record
Temperature  
Mean Temperature 32 °F -  
Max Temperature 39 °F 40 °F 59 °F (2000)
Min Temperature 26 °F 26 °F 19 °F (2012)
Degree Days  
Heating Degree Days 32    
Moisture  
Dew Point 27 °F    
Average Humidity 81    
Maximum Humidity 100    
Minimum Humidity 56    
Precipitation  
Precipitation 0.00 in - - ()
Sea Level Pressure  
Sea Level Pressure 29.95 in    
Wind  
Wind Speed 1 mph (WSW)    
Max Wind Speed 8 mph    
Max Gust Speed -    
Visibility 10 miles    
Events      
Averages and records for this station are not official NWS values.
T = Trace of Precipitation, MM = Missing Value Source: NWS Daily Summary

Daily Weather History Graph

Daily Weather History Graph

Search for Another Location

Airport or City:

Trip Planner

Search our weather history database for the weather conditions in past years. The results will help you decide how hot, cold, wet, or windy it might be!

Date:

Astronomy

Nov. 02, 2013 Rise Set
Actual Time 7:53 AM CDT 5:47 PM CDT
Civil Twilight 7:21 AM CDT 6:19 PM CDT
Nautical Twilight 6:44 AM CDT 6:56 PM CDT
Astronomical Twilight 6:08 AM CDT 7:32 PM CDT
Moon 6:48 AM CDT (11/2) 5:20 PM CDT (11/2)
Length of Visible Light 10h 58m
Length of Day
9h 53m
Waning Crescent, 1% of the Moon is Illuminated
Nov 2
Waning Crescent
Nov 3
New
Nov 9
First Quarter
Nov 17
Full
Nov 25
Last Quarter

Hourly Weather History & Observations

Time (CDT) Temp. Windchill Dew Point Humidity Pressure Visibility Wind Dir Wind Speed Gust Speed Precip Events Conditions
12:13 AM 30.2 °F - 30.2 °F 100% 29.78 in 10.0 mi Calm Calm - N/A   Overcast
12:33 AM 30.2 °F 26.7 °F 30.2 °F 100% 29.78 in 10.0 mi NW 3.5 mph - N/A   Overcast
12:52 AM 32.0 °F - 28.4 °F 87% 29.79 in 10.0 mi Calm Calm - N/A   Overcast
1:13 AM 32.0 °F - 28.4 °F 87% 29.80 in 10.0 mi Calm Calm - N/A   Overcast
1:33 AM 32.0 °F - 28.4 °F 87% 29.81 in 10.0 mi Calm Calm - N/A   Overcast
1:52 AM 32.0 °F - 28.4 °F 87% 29.82 in 10.0 mi Calm Calm - N/A   Overcast
2:13 AM 32.0 °F - 28.4 °F 87% 29.82 in 10.0 mi Calm Calm - N/A   Overcast
2:33 AM 32.0 °F - 28.4 °F 87% 29.83 in 10.0 mi Calm Calm - N/A   Overcast
2:52 AM 32.0 °F - 28.4 °F 87% 29.83 in 10.0 mi Calm Calm - N/A   Overcast
3:13 AM 32.0 °F - 28.4 °F 87% 29.84 in 10.0 mi Calm Calm - N/A   Overcast
3:32 AM 32.0 °F - 28.4 °F 87% 29.84 in 10.0 mi Calm Calm - N/A   Overcast
3:53 AM 30.2 °F - 30.2 °F 100% 29.85 in 10.0 mi Calm Calm - N/A   Overcast
4:12 AM 30.2 °F - 30.2 °F 100% 29.86 in 10.0 mi Calm Calm - N/A   Overcast
4:33 AM 30.2 °F - 30.2 °F 100% 29.86 in 10.0 mi Calm Calm - N/A   Overcast
4:53 AM 30.2 °F - 30.2 °F 100% 29.87 in 10.0 mi Calm Calm - N/A   Overcast
5:13 AM 30.2 °F - 30.2 °F 100% 29.88 in 10.0 mi Calm Calm - N/A   Overcast
5:32 AM 30.2 °F - 30.2 °F 100% 29.89 in 10.0 mi Calm Calm - N/A   Overcast
5:53 AM 32.0 °F - 30.2 °F 93% 29.89 in 10.0 mi Calm Calm - N/A   Overcast
6:13 AM 30.2 °F - 30.2 °F 100% 29.90 in 10.0 mi Calm Calm - N/A   Overcast
6:33 AM 30.2 °F - 30.2 °F 100% 29.91 in 10.0 mi Calm Calm - N/A   Overcast
6:52 AM 30.2 °F - 30.2 °F 100% 29.91 in 10.0 mi Calm Calm - N/A   Overcast
7:13 AM 30.2 °F - 30.2 °F 100% 29.92 in 10.0 mi Calm Calm - N/A   Overcast
7:33 AM 30.2 °F - 30.2 °F 100% 29.92 in 10.0 mi Calm Calm - N/A   Overcast
7:52 AM 32.0 °F - 28.4 °F 87% 29.93 in 10.0 mi Calm Calm - N/A   Overcast
8:13 AM 32.0 °F - 30.2 °F 93% 29.93 in 10.0 mi Calm Calm - N/A   Overcast
8:33 AM 32.0 °F - 30.2 °F 93% 29.94 in 10.0 mi Calm Calm - N/A   Overcast
8:52 AM 32.0 °F - 30.2 °F 93% 29.95 in 10.0 mi Calm Calm - N/A   Overcast
9:13 AM 32.0 °F - 30.2 °F 93% 29.95 in 10.0 mi Calm Calm - N/A   Overcast
9:33 AM 33.8 °F - 30.2 °F 87% 29.95 in 10.0 mi Calm Calm - N/A   Overcast
9:53 AM 33.8 °F 30.8 °F 30.2 °F 87% 29.95 in 10.0 mi NW 3.5 mph - N/A   Overcast
10:13 AM 35.6 °F - 26.6 °F 70% 29.95 in 10.0 mi Calm Calm - N/A   Scattered Clouds
10:33 AM 35.6 °F 32.8 °F 24.8 °F 65% 29.97 in 10.0 mi NW 3.5 mph - N/A   Scattered Clouds
10:52 AM 35.6 °F - 24.8 °F 65% 29.97 in 10.0 mi Calm Calm - N/A   Overcast
11:13 AM 37.4 °F 33.8 °F 24.8 °F 60% 29.98 in 10.0 mi West 4.6 mph - N/A   Overcast
11:33 AM 37.4 °F 32.8 °F 24.8 °F 60% 29.99 in 10.0 mi WNW 5.8 mph - N/A   Overcast
11:52 AM 37.4 °F - 24.8 °F 60% 29.99 in 10.0 mi Calm Calm - N/A   Mostly Cloudy
12:13 PM 39.2 °F 35.0 °F 24.8 °F 56% 30.00 in 10.0 mi WSW 5.8 mph - N/A   Scattered Clouds
12:33 PM 37.4 °F 33.8 °F 24.8 °F 60% 30.00 in 10.0 mi West 4.6 mph - N/A   Scattered Clouds
12:52 PM 39.2 °F - 24.8 °F 56% 30.00 in 10.0 mi Calm Calm - N/A   Scattered Clouds
1:13 PM 37.4 °F 33.8 °F 24.8 °F 60% 29.99 in 10.0 mi WSW 4.6 mph - N/A   Mostly Cloudy
1:33 PM 39.2 °F 35.0 °F 24.8 °F 56% 29.99 in 10.0 mi WSW 5.8 mph - N/A   Mostly Cloudy
1:52 PM 39.2 °F 37.0 °F 24.8 °F 56% 29.99 in 10.0 mi WSW 3.5 mph - N/A   Scattered Clouds
2:13 PM 39.2 °F 35.0 °F 26.6 °F 61% 29.99 in 10.0 mi West 5.8 mph - N/A   Mostly Cloudy
2:33 PM 39.2 °F 37.0 °F 24.8 °F 56% 30.00 in 10.0 mi WSW 3.5 mph - N/A   Overcast
2:52 PM 39.2 °F 35.9 °F 24.8 °F 56% 30.00 in 10.0 mi WNW 4.6 mph - N/A   Overcast
3:13 PM 39.2 °F 33.6 °F 24.8 °F 56% 30.00 in 10.0 mi West 8.1 mph - N/A   Mostly Cloudy
3:33 PM 39.2 °F 35.0 °F 24.8 °F 56% 30.00 in 10.0 mi West 5.8 mph - N/A   Mostly Cloudy
3:52 PM 39.2 °F 35.0 °F 24.8 °F 56% 30.00 in 10.0 mi West 5.8 mph - N/A   Mostly Cloudy
4:13 PM 39.2 °F 35.9 °F 24.8 °F 56% 30.00 in 10.0 mi West 4.6 mph - N/A   Mostly Cloudy
4:33 PM 39.2 °F 34.2 °F 24.8 °F 56% 30.00 in 10.0 mi WSW 6.9 mph - N/A   Mostly Cloudy
4:53 PM 39.2 °F 33.6 °F 24.8 °F 56% 30.01 in 10.0 mi West 8.1 mph - N/A   Scattered Clouds
5:13 PM 37.4 °F 33.8 °F 24.8 °F 60% 30.01 in 10.0 mi West 4.6 mph - N/A   Clear
5:32 PM 37.4 °F 33.8 °F 24.8 °F 60% 30.01 in 10.0 mi West 4.6 mph - N/A   Clear
5:53 PM 35.6 °F - 24.8 °F 65% 30.02 in 10.0 mi Calm Calm - N/A   Clear
6:13 PM 33.8 °F - 24.8 °F 70% 30.03 in 10.0 mi Calm Calm - N/A   Clear
6:32 PM 33.8 °F - 24.8 °F 70% 30.03 in 10.0 mi Calm Calm - N/A   Scattered Clouds
6:53 PM 28.4 °F - 24.8 °F 86% 30.03 in 10.0 mi Calm Calm - N/A   Scattered Clouds
7:13 PM 28.4 °F - 24.8 °F 86% 30.04 in 10.0 mi Calm Calm - N/A   Mostly Cloudy
7:32 PM 28.4 °F - 24.8 °F 86% 30.03 in 10.0 mi Calm Calm - N/A   Overcast
7:53 PM 26.6 °F - 24.8 °F 93% 30.03 in 10.0 mi Calm Calm - N/A   Scattered Clouds
8:13 PM 26.6 °F - 24.8 °F 93% 30.03 in 10.0 mi Calm Calm - N/A   Clear
8:32 PM 26.6 °F 22.6 °F 24.8 °F 93% 30.03 in 10.0 mi SE 3.5 mph - N/A   Clear
8:53 PM 26.6 °F - 24.8 °F 93% 30.04 in 10.0 mi Calm Calm - N/A   Clear
9:13 PM 26.6 °F - 24.8 °F 93% 30.04 in 10.0 mi Calm Calm - N/A   Clear
9:32 PM 28.4 °F 22.2 °F 26.6 °F 93% 30.04 in 10.0 mi SSE 5.8 mph - N/A   Clear
9:53 PM 30.2 °F 24.3 °F 26.6 °F 86% 30.04 in 10.0 mi South 5.8 mph - N/A   Clear
10:13 PM 30.2 °F 25.4 °F 28.4 °F 93% 30.04 in 10.0 mi South 4.6 mph - N/A   Clear
10:32 PM 30.2 °F 26.7 °F 28.4 °F 93% 30.05 in 10.0 mi South 3.5 mph - N/A   Clear
10:53 PM 30.2 °F - 28.4 °F 93% 30.05 in 10.0 mi Calm Calm - N/A   Clear
11:13 PM 30.2 °F - 28.4 °F 93% 30.05 in 10.0 mi Calm Calm - N/A   Clear
11:32 PM 30.2 °F - 28.4 °F 93% 30.05 in 10.0 mi Calm Calm - N/A   Clear
11:53 PM 28.4 °F - 28.4 °F 100% 30.05 in 10.0 mi Calm Calm - N/A   Clear